Bookmark and Share
Track history (hours):
 

Sunflower Gold

Last reported at 2014-Apr-22 11:31 UTC. Time now 2014-Apr-23 07:22 UTC.
Position N 34°34' E 134°50'.

Length 166 m; draft 5.8 m.

Type: Passenger vessel. MMSI: 431000331.

NotesDate/timePositionNaut miles runAvg speedWind from/ knotsBaromVisibWave heightAir tempDewpointWater temp
2014-Apr-22 11:31N 34°34' E 134°50'1818.7
2014-Apr-22 10:33N 34°36' E 135°12'7 6.1
2014-Apr-22 09:24N 34°42' E 135°17'0 0.0
2014-Apr-22 08:30N 34°42' E 135°17'0 0.0
2014-Apr-22 07:24N 34°42' E 135°17'0 0.0
2014-Apr-22 06:24N 34°42' E 135°17'0 0.0
2014-Apr-22 05:24N 34°42' E 135°17'0 0.0
2014-Apr-22 04:30N 34°42' E 135°17'0 0.0
2014-Apr-22 03:24N 34°42' E 135°17'0 0.0
2014-Apr-22 02:30N 34°42' E 135°17'0 0.0
2014-Apr-22 01:30N 34°42' E 135°17'0 0.0
2014-Apr-22 00:30N 34°42' E 135°17'0 0.0
2014-Apr-21 23:30N 34°42' E 135°17'0 0.0
2014-Apr-21 22:30N 34°42' E 135°17'0 0.0
2014-Apr-21 21:33N 34°42' E 135°17'1010.2
2014-Apr-21 20:33N 34°35' E 135°08'17 0.4
2014-Apr-20 03:15N 34°33' E 134°47'1420.7
2014-Apr-20 02:33N 34°36' E 135°04'1211.9
2014-Apr-20 01:32N 34°42' E 135°17'0 0.0
2014-Apr-20 00:32N 34°42' E 135°17'0 0.0
2014-Apr-19 23:26N 34°42' E 135°17'1 0.9
2014-Apr-19 22:33N 34°41' E 135°18'1413.9
2014-Apr-19 21:33N 34°36' E 135°02'10 0.3
2014-Apr-18 12:18N 34°34' E 134°50'1520.7
2014-Apr-18 11:33N 34°36' E 135°08'9 9.3
2014-Apr-18 10:33N 34°42' E 135°17'0 0.0
2014-Apr-18 09:23N 34°42' E 135°17'0 0.0
2014-Apr-18 08:29N 34°42' E 135°17'0 0.0
2014-Apr-18 07:29N 34°42' E 135°17'0 0.0
2014-Apr-18 06:29N 34°42' E 135°17'0 0.0
2014-Apr-18 05:29N 34°42' E 135°17'0 0.0
2014-Apr-18 04:17N 34°42' E 135°17'0 0.0
2014-Apr-18 03:29N 34°42' E 135°17'0 0.0
2014-Apr-18 02:29N 34°42' E 135°17'0 0.0
2014-Apr-18 01:29N 34°42' E 135°17'0 0.0
2014-Apr-18 00:29N 34°42' E 135°17'0 0.0
2014-Apr-17 23:29N 34°42' E 135°17'0 0.0
2014-Apr-17 22:29N 34°42' E 135°17'0 0.0
2014-Apr-17 21:33N 34°42' E 135°17'1312.7
2014-Apr-17 20:33N 34°35' E 135°04'15 0.4
2014-Apr-16 11:29N 34°34' E 134°47'2122.3
2014-Apr-16 10:33N 34°36' E 135°12'7 5.9
2014-Apr-16 09:20N 34°42' E 135°17'0 0.0
2014-Apr-16 08:32N 34°42' E 135°17'0 0.0
2014-Apr-16 07:26N 34°42' E 135°17'0 0.0
2014-Apr-16 06:26N 34°42' E 135°17'0 0.0
2014-Apr-16 05:32N 34°42' E 135°17'0 0.0
2014-Apr-16 04:32N 34°42' E 135°17'0 0.0
2014-Apr-16 03:32N 34°42' E 135°17'0 0.0
2014-Apr-16 02:32N 34°42' E 135°17'0 0.0
2014-Apr-16 01:26N 34°42' E 135°17'0 0.0
2014-Apr-16 00:32N 34°42' E 135°17'0 0.0
2014-Apr-15 23:20N 34°42' E 135°17'0 0.0
2014-Apr-15 22:32N 34°42' E 135°17'0 0.0
2014-Apr-15 21:33N 34°42' E 135°17'1111.1
2014-Apr-15 20:33N 34°34' E 135°07'2018.6
2014-Apr-15 19:29N 34°31' E 134°43'4 0.1
2014-Apr-14 10:33N 34°34' E 134°46'2222.2
2014-Apr-14 09:34N 34°37' E 135°13'6 6.1
2014-Apr-14 08:32N 34°42' E 135°17'0 0.0
2014-Apr-14 07:32N 34°42' E 135°17'0 0.0
2014-Apr-14 05:32N 34°42' E 135°17'0 0.0
2014-Apr-13 22:20N 34°42' E 135°17'0 0.0
2014-Apr-13 21:32N 34°42' E 135°17'9 9.5
2014-Apr-13 20:34N 34°35' E 135°09'1919.0
2014-Apr-13 19:33N 34°31' E 134°47'5 0.1
2014-Apr-12 12:15N 34°35' E 134°50'1420.7
2014-Apr-12 11:33N 34°36' E 135°08'  

Dump ship's entire track history

sailing weather and tide predictions

Sunflower Gold — JD2460 — position and weather